Location: Buchberg
(46.9333°N, 15.8500°E)
Time: 19:17:54
(UTC+00:00)

SL-8 R/B - Pass Details

Date: 14 July 2020
Orbit: 656 x 668 km, 48.4° (Epoch: 06 August)

Event Time Altitude Azimuth Distance (km) Brightness Sun altitude
Exits shadow 00:08:40 46° 184° (S) 897 3.9 -19.8°
Maximum altitude 00:09:27 51° 152° (SSE) 837 3.9 -19.8°
Drops below altitude 10° 00:14:06 10° 77° (ENE) 2,082 6.6 -19.6°
Sets 00:16:30 0° 72° (ENE) 2,995 7.6 -19.4°
